Regional Weather Roundup
Issued by NWS Cleveland, OH

Home | Current Version | Previous Version | Graphics & Text | Print | Product List | Glossary On
Versions: 1 2 3 4 5 6 7 8 9 10 11 12 13 14 15 16 17 18 19 20 21 22 23 24 25 26 27 28 29 30 31 32 33 34 35 36 37 38 39 40 41 42 43 44 45 46 47 48 49 50
000
ASUS41 KCLE 291410
RWRCLE
OHIO REGIONAL WEATHER ROUNDUP
NATIONAL WEATHER SERVICE CLEVELAND, OH
1000 AM EDT THU SEP 29 2016

NOTE: "FAIR" INDICATES FEW OR NO CLOUDS BELOW 12,000 FEET WITH NO
SIGNIFICANT WEATHER AND/OR OBSTRUCTIONS TO VISIBILITY.

OHZ001>008-015>018-024>027-034-035-043-044-291500-
   NORTHWEST OHIO

CITY           SKY/WX    TMP DP  RH WIND       PRES   REMARKS
DEFIANCE       CLOUDY    60  55  83 E7        30.10R
FINDLAY        PTSUNNY   60  54  80 E5        30.09R
TOLEDO EXPRESS MOSUNNY   56  56 100 CALM      30.10R
TOLEDO EXEC    PTSUNNY   59  57  93 SE5       30.11R
LIMA           PTSUNNY   58  56  93 E6        30.08R
$$

OHZ009>014-019>023-028>033-038-089-291500-
   NORTHEAST OHIO

CITY           SKY/WX    TMP DP  RH WIND       PRES   REMARKS
CLE-HOPKINS    CLOUDY    63  58  83 S6        30.12R
CLE-LAKEFRONT  CLOUDY    68  60  75 VRB3      30.10R
CUY CO. ARPT   PTSUNNY   68  63  83 SE14G21   30.11R
LORAIN-ELYRIA  CLOUDY    58  54  86 S3        30.11R
ASHTABULA      CLOUDY    63  59  87 E9        30.16R
AKRON-CANTON   LGT RAIN  62  58  86 E8        30.10R
WOOSTER        CLOUDY    58  55  90 CALM      30.11R
MANSFIELD      CLOUDY    58  55  90 CALM      30.10R
YOUNGSTOWN     CLOUDY    61  57  87 E14G20    30.12R
$$

OHZ042-051>053-060>062-070>072-077>081-291500-
  SOUTHWEST OHIO

CITY           SKY/WX    TMP DP  RH WIND       PRES   REMARKS
CINC-COVINGTON CLOUDY    57  53  86 SE5       30.05S
CINC-LUNKEN    PTSUNNY   57  54  89 E3        30.07R FOG
HAMILTON       PTSUNNY   57  53  86 N6        30.07R
DAYTON         MOSUNNY   57  54  89 SE5       30.08R
WRIGHT-PAT AFB PTSUNNY   57  57 100 E5        30.07R
DAYTON GENERAL CLOUDY    55  52  89 E3        30.07R FOG
WILMINGTON     CLOUDY    54  53  97 CALM      30.06S FOG
$$

OHZ036-037-039>041-045>050-054>059-063>069-073>076-082>088-291500-
  CENTRAL AND SOUTHEAST OHIO

CITY           SKY/WX    TMP DP  RH WIND       PRES   REMARKS
COLUMBUS       CLOUDY    60  57  89 E7        30.06S
OSU AIRPORT    CLOUDY    59  57  93 E7        30.07R
BOLTON FIELD   PTSUNNY   61  57  88 E6        30.07R
RICKENBACK AFB CLOUDY    59  57  96 NE6       30.06S
NEWARK         CLOUDY    58  56  93 NE3       30.07S
MARION         PTSUNNY   58  55  90 E6        30.10R
LANCASTER      CLOUDY    61  57  87 E6        30.07R
ZANESVILLE     PTSUNNY   58  55  90 N3        30.08R
NEW PHILLY     CLOUDY    59  57  93 W5        30.10R
$$




USA.gov is the U.S. government's official web portal to all federal, state and local government web resources and services.